Location: Newark
(31.5350°N, 35.0986°E)
Time: 07:09:28
(UTC+00:00)

Courier 1B - Pass Details

Date: 25 September 2019
Orbit: 962 x 1209 km, 28.3° (Epoch: 21 October)

Event Time Altitude Azimuth Distance (km) Brightness Sun altitude
Exits shadow 02:10:28 24° 236° (WSW) 1,884 8.5 -17.5°
Maximum altitude 02:14:20 56° 168° (SSE) 1,164 7.9 -16.7°
Drops below altitude 10° 02:21:01 10° 92° (E) 2,833 11.3 -15.3°
Sets 02:23:51 0° 88° (E) 3,825 12.5 -14.7°
